Wetbulb
53.07 53.05 53.19 53.42 53.36 53.46 53.91 54.16 54.35 54.40 54.34 54.67 55.01 55.21 55.05 55.17 55.03 51.05 43.41 48.52 51.47 55.62 54.88 49.87 48.13 46.50 45.56 42.96 43.08 40.29 30.36 28.00 30.39 32.25 33.38 36.77 35.75 40.06 43.01 45.04 50.50 59.31 58.44 60.76 61.86
52.44 52.48 52.91 52.96 52.97 53.32 53.60 53.89 53.93 54.09 54.07 54.40 54.81 54.96 54.59 54.86 49.84 44.50 50.95 54.07 54.81 54.95 48.45 45.12 42.79 43.95 39.40 40.96 40.53 34.61 29.02 30.86 35.76 36.58 35.85 37.21 35.92 37.18 37.54 42.52 49.52 52.00 58.68 61.72 62.16
51.95 52.42 52.65 52.63 52.65 52.87 53.14 53.52 53.72 53.90 53.94 54.32 54.70 54.57 54.13 53.17 45.35 44.06 52.86 53.89 54.53 53.74 48.79 47.51 45.61 42.88 37.44 39.12 38.32 36.85 30.85 36.22 38.38 40.03 39.67 37.05 36.60 38.21 36.56 41.88 45.31 48.05 50.93 56.31 59.94
51.84 52.22 52.41 52.32 52.41 52.51 52.87 53.18 53.52 53.77 53.97 54.26 53.80 53.60 53.83 50.29 33.92 47.43 53.04 54.29 54.87 52.42 48.44 45.49 42.71 37.58 35.17 34.22 38.28 32.87 37.56 38.38 39.15 40.33 39.12 35.80 37.27 35.65 36.13 38.11 41.86 46.21 50.97 53.87 58.12
51.65 51.72 51.67 52.11 52.14 52.43 52.61 53.15 53.46 53.66 53.85 53.36 53.38 53.30 50.31 43.73 41.61 50.80 55.23 53.02 51.45 50.29 45.90 42.97 39.70 37.62 33.19 35.44 36.66 33.67 36.02 38.85 39.51 39.37 38.82 39.17 35.56 34.73 35.68 38.86 43.11 44.04 53.48 54.63 57.70
51.31 51.45 51.70 51.70 51.96 52.29 52.51 52.76 53.08 53.39 53.42 52.67 53.20 53.54 47.59 38.90 49.27 51.29 49.73 50.93 50.79 48.45 45.68 44.68 42.26 40.98 36.67 35.96 34.40 36.77 37.13 37.84 39.09 38.40 38.69 36.45 35.42 36.20 36.40 39.21 42.30 52.36 54.46 56.11 57.30
51.26 51.51 51.34 51.66 51.96 52.03 52.27 52.61 53.19 53.20 51.87 52.18 52.90 51.28 46.16 42.33 49.30 49.31 50.42 50.05 51.15 48.93 45.01 46.59 44.34 39.41 38.44 35.52 39.67 37.74 33.51 35.76 36.79 38.02 36.64 38.05 32.61 32.48 39.00 39.30 40.56 51.04 53.48 54.29 54.75
51.06 51.29 51.31 51.73 51.74 51.65 52.12 52.74 52.80 51.32 51.67 52.22 52.65 49.36 42.01 49.80 47.10 49.26 49.78 49.82 51.23 50.14 48.15 48.04 46.49 42.23 38.76 40.25 38.19 35.08 33.88 27.53 35.19 37.26 38.46 35.53 26.13 37.77 42.52 40.41 39.48 50.68 51.97 52.63 53.62
50.96 50.95 51.31 51.59 51.26 51.43 52.15 51.73 50.98 50.39 52.59 51.65 48.90 44.76 39.05 51.10 45.73 48.00 48.22 47.19 48.71 49.33 47.85 49.51 45.97 39.98 40.98 36.13 33.28 32.82 21.61 29.58 31.56 37.03 36.16 34.99 30.66 38.26 43.42 44.85 44.62 49.41 51.07 51.70 52.35
50.79 50.78 51.18 51.00 50.94 51.39 51.37 51.14 48.38 48.40 51.29 51.63 48.32 39.79 43.13 40.11 44.35 46.30 48.67 48.99 46.38 46.14 45.01 42.70 39.82 34.39 34.76 34.80 26.90 27.84 27.59 30.25 28.89 35.38 35.61 33.10 33.81 38.47 40.13 42.08 42.56 47.35 49.93 50.79 51.00
50.64 50.55 50.82 50.49 50.75 51.16 47.76 42.47 37.76 37.92 39.93 35.46 37.34 38.52 40.58 43.16 46.50 46.15 47.33 46.17 46.23 43.11 35.75 39.57 31.84 27.34 32.15 35.82 34.40 31.93 31.31 28.50 31.66 35.81 33.58 33.68 33.53 36.90 38.89 39.74 40.36 46.95 48.29 50.06 51.01
50.39 50.16 50.34 50.29 50.47 50.96 45.37 38.67 38.22 38.77 32.15 39.08 39.10 39.74 42.28 42.51 39.55 43.66 46.58 41.32 40.78 34.57 38.23 33.51 26.96 35.85 38.19 38.87 38.14 32.91 27.77 29.42 34.47 36.01 33.24 32.48 32.77 36.55 38.28 38.81 41.95 43.73 43.05 44.76 50.56
49.78 50.06 49.99 50.17 49.89 44.68 40.64 40.39 44.93 43.07 33.81 34.97 37.29 38.38 39.17 41.52 39.41 40.15 42.42 40.65 37.55 35.77 34.58 28.52 34.40 38.67 37.61 36.33 36.39 36.07 33.29 32.29 31.60 34.21 34.82 33.39 29.29 32.44 36.15 38.11 41.72 43.26 43.64 43.36 45.58
49.55 49.70 49.76 49.44 44.78 40.44 38.16 44.07 45.17 41.81 25.29 30.25 34.68 38.49 40.79 41.22 37.81 43.39 43.64 40.91 38.53 33.71 34.78 33.89 37.12 35.86 35.44 34.70 34.95 34.00 37.66 36.20 33.69 30.68 22.40 31.20 22.39 30.23 33.03 33.77 37.40 39.66 41.29 42.56 45.01
49.44 49.19 49.07 48.38 40.79 38.56 41.51 44.49 43.42 38.30 15.01 31.25 33.71 41.70 40.55 37.25 37.60 39.02 42.92 40.66 34.36 34.51 33.35 31.11 33.25 32.57 32.97 34.55 35.44 35.09 38.02 36.58 34.51 31.19 29.14 26.69 24.18 28.26 33.05 33.90 36.02 38.18 39.43 40.72 43.31
49.61 48.51 47.94 44.19 41.05 41.44 44.27 42.35 38.58 22.85 14.42 26.21 33.15 33.35 34.54 36.40 36.34 38.59 39.79 41.27 39.60 36.16 35.61 33.69 36.79 35.13 33.54 36.25 35.82 38.37 35.26 35.54 33.57 29.69 20.02 26.13 24.64 25.54 29.41 33.61 36.29 37.54 38.98 39.65 40.20
49.30 48.01 44.60 44.07 38.14 43.00 42.15 36.92 21.61 15.99 25.55 20.92 26.68 31.49 30.97 30.36 33.22 34.98 34.19 30.20 25.12 22.62 22.72 30.30 32.13 35.53 36.33 32.50 35.90 33.83 30.89 22.23 19.33 18.85 16.67 27.08 25.07 24.58 32.66 35.66 36.61 36.73 37.63 39.00 39.74
48.95 46.62 45.06 44.05 42.67 41.93 38.65 25.24 15.00 16.76 16.50 27.64 28.11 29.61 26.90 29.58 30.24 32.39 32.03 26.20 32.00 29.54 21.18 20.15 20.62 31.76 35.64 31.87 29.54 29.88 28.56 20.70 14.78 17.28 19.76 26.60 21.83 25.44 34.31 36.30 36.60 37.31 37.13 37.75 37.86
48.44 41.58 40.88 41.04 42.51 39.70 29.41 14.29 18.51 20.20 26.67 26.32 27.02 24.24 23.23 28.73 27.55 29.12 26.03 25.69 29.71 31.18 22.55 19.63 23.18 34.16 34.80 35.14 33.37 30.81 24.91 30.53 24.36 17.49 19.66 22.13 26.06 31.45 35.02 34.63 34.62 34.90 34.93 34.45 34.79
40.18 39.03 38.68 41.43 40.27 36.28 22.44 21.43 18.94 26.13 28.52 29.00 21.93 24.70 17.16 22.66 25.14 25.99 26.51 28.93 29.21 32.56 32.56 28.95 21.05 30.46 33.96 35.92 35.00 32.11 34.32 24.96 23.51 11.29 11.98 20.51 22.48 23.16 29.87 31.37 32.54 31.88 31.73 32.48 33.18
39.74 32.96 38.15 41.04 38.30 28.70 18.15 15.80 18.43 26.81 30.81 27.34 25.58 19.88 25.13 21.65 22.18 24.41 25.74 28.39 29.48 30.77 32.77 31.31 27.16 26.34 30.84 28.57 27.78 28.98 28.06 28.78 27.27 24.48 19.82 17.07 20.21 29.61 31.50 32.58 31.05 31.47 32.70 31.82 31.87
37.87 28.08 37.22 38.22 23.35 17.39 18.51 19.58 29.60 26.10 30.48 28.13 28.36 28.22 26.18 26.13 24.51 23.85 25.90 27.25 30.08 30.37 28.08 32.30 28.83 19.45 25.62 33.00 34.35 32.04 30.35 29.85 22.37 21.88 22.69 24.20 21.34 33.94 33.31 32.99 32.12 31.47 32.17 31.86 31.75
32.94 32.92 38.65 35.84 18.01 16.17 17.81 18.29 25.99 27.34 27.61 27.96 25.22 28.29 29.25 25.98 19.69 26.85 26.15 30.89 31.04 30.05 29.11 31.12 21.75 14.26 19.81 26.10 30.20 28.53 30.99 32.00 29.76 26.61 23.42 18.59 20.55 33.65 33.61 31.79 31.57 30.16 30.33 30.71 30.79
33.74 27.88 33.38 33.75 28.62 24.55 15.90 16.45 17.07 29.21 29.14 30.09 28.40 28.70 26.25 23.40 22.21 21.12 26.42 29.54 30.62 30.85 34.31 33.52 27.58 22.80 19.31 22.97 25.03 25.45 29.14 30.70 28.59 20.37 23.84 23.21 24.72 29.12 30.72 29.35 29.64 29.65 29.88 29.97 30.57
32.74 31.37 30.48 23.38 23.57 25.02 23.01 22.24 21.23 19.67 27.53 29.51 26.25 27.26 25.48 18.15 21.11 18.71 22.62 26.91 29.01 31.21 29.80 26.41 14.97 20.69 24.98 24.79 24.09 24.67 25.91 27.58 27.39 27.85 23.06 24.98 26.53 30.14 31.08 29.70 29.09 29.72 30.50 30.80 30.99
30.32 30.88 31.16 29.12 27.67 25.97 26.64 20.77 24.41 25.70 25.02 23.36 24.00 26.05 27.17 21.94 23.83 19.50 25.26 24.61 24.41 25.79 26.49 26.82 13.63 15.95 11.14 21.89 22.24 21.75 23.33 23.92 25.59 28.53 29.27 29.16 27.32 32.99 32.23 30.05 28.54 30.48 30.84 30.33 30.80
36.82 36.07 34.76 31.83 29.01 23.02 22.61 25.96 25.77 28.16 27.78 28.84 27.62 26.20 26.19 27.37 28.31 27.65 28.63 27.58 27.75 23.94 19.22 18.62 11.58 7.26 6.33 10.33 11.76 10.12 15.86 22.87 24.86 28.31 29.61 25.83 28.92 30.94 29.07 30.92 29.71 29.75 30.72 30.67 31.19
MSLP
1023.60 1023.56 1023.30 1023.13 1023.07 1023.00 1022.78 1022.43 1022.15 1021.89 1021.63 1021.37 1021.01 1020.72 1020.52 1020.22 1019.63 1019.22 1019.65 1019.94 1019.70 1019.36 1018.95 1018.62 1018.07 1017.61 1017.17 1017.19 1017.13 1017.37 1018.26 1017.88 1017.25 1016.80 1016.06 1014.99 1014.30 1013.09 1012.15 1011.17 1010.18 1009.80 1009.53 1008.81 1009.39
1023.81 1023.65 1023.53 1023.27 1023.11 1023.03 1022.87 1022.54 1022.14 1021.89 1021.62 1021.38 1021.09 1020.78 1020.54 1020.23 1019.97 1019.79 1019.90 1019.63 1019.51 1019.38 1019.21 1019.03 1018.69 1018.35 1018.15 1018.01 1017.77 1018.02 1018.27 1017.49 1017.15 1017.21 1016.73 1015.94 1015.02 1014.20 1013.11 1012.12 1011.03 1010.72 1010.73 1010.16 1010.61
1023.84 1023.77 1023.64 1023.47 1023.25 1022.95 1022.81 1022.58 1022.13 1021.79 1021.51 1021.25 1020.99 1020.74 1020.53 1020.30 1020.28 1020.12 1019.68 1019.63 1019.63 1019.37 1019.27 1019.25 1019.25 1019.30 1019.25 1018.93 1018.72 1018.37 1018.14 1017.59 1016.92 1016.99 1016.75 1016.48 1015.64 1015.07 1014.27 1013.04 1012.50 1012.39 1012.09 1011.70 1011.32
1023.84 1023.82 1023.75 1023.51 1023.37 1023.00 1022.70 1022.51 1022.12 1021.77 1021.44 1021.10 1020.87 1020.71 1020.46 1020.44 1020.67 1020.07 1019.69 1019.49 1019.32 1019.27 1019.53 1019.41 1019.70 1020.18 1020.26 1020.12 1019.78 1019.64 1018.66 1018.08 1017.43 1017.12 1017.02 1016.76 1016.23 1015.39 1014.82 1014.22 1013.52 1012.67 1011.69 1011.66 1012.21
1023.88 1023.78 1023.63 1023.48 1023.35 1023.05 1022.63 1022.31 1022.07 1021.68 1021.35 1021.02 1020.81 1020.73 1020.58 1020.47 1020.20 1019.72 1019.60 1019.38 1019.15 1019.20 1019.51 1019.67 1020.15 1020.50 1020.92 1020.91 1020.23 1019.96 1019.36 1018.74 1018.12 1017.67 1017.18 1016.57 1016.54 1016.09 1015.01 1014.06 1013.53 1012.55 1011.86 1011.49 1011.97
1023.94 1023.90 1023.63 1023.40 1023.25 1022.94 1022.58 1022.21 1021.84 1021.55 1021.26 1021.00 1020.82 1020.76 1020.71 1020.31 1019.79 1019.53 1019.52 1019.32 1019.59 1019.66 1019.55 1019.80 1020.13 1020.59 1020.75 1020.80 1020.94 1020.29 1019.89 1019.23 1018.47 1017.83 1017.44 1016.92 1016.87 1016.46 1014.88 1014.29 1014.01 1013.27 1012.69 1012.30 1012.43
1023.95 1023.88 1023.64 1023.43 1023.12 1022.83 1022.42 1022.05 1021.72 1021.29 1021.09 1020.86 1020.79 1020.85 1020.51 1020.17 1019.71 1019.62 1019.52 1019.33 1019.59 1019.75 1019.87 1020.18 1020.42 1020.72 1020.35 1020.85 1020.81 1020.62 1020.13 1019.27 1018.08 1017.71 1017.61 1017.38 1017.10 1016.72 1015.67 1014.37 1014.34 1013.66 1013.47 1013.51 1013.22
1023.86 1023.88 1023.61 1023.37 1023.06 1022.65 1022.19 1021.75 1021.44 1021.14 1020.94 1020.71 1020.71 1020.77 1020.28 1019.57 1019.63 1019.59 1019.58 1019.40 1019.47 1019.57 1019.95 1020.25 1020.69 1020.95 1020.76 1020.85 1020.81 1020.69 1020.61 1019.91 1018.11 1017.91 1017.70 1018.04 1017.93 1017.22 1016.04 1014.77 1014.76 1014.58 1014.73 1014.50 1013.71
1023.66 1023.67 1023.56 1023.24 1022.98 1022.48 1021.95 1021.51 1021.20 1020.92 1020.77 1020.74 1020.87 1020.70 1020.22 1019.62 1019.81 1019.70 1019.69 1019.60 1019.62 1019.48 1019.74 1019.89 1020.66 1020.79 1021.08 1020.78 1021.00 1021.25 1021.43 1020.76 1019.35 1018.54 1018.56 1018.96 1018.93 1018.54 1016.97 1015.76 1015.96 1015.41 1014.63 1014.03 1014.21
1023.50 1023.45 1023.38 1023.12 1022.84 1022.29 1021.73 1021.22 1021.07 1021.02 1020.85 1020.63 1020.61 1020.98 1020.26 1020.37 1020.11 1019.86 1019.57 1019.59 1019.79 1019.64 1019.80 1020.23 1020.72 1020.85 1020.86 1020.83 1021.51 1021.69 1021.61 1021.51 1020.95 1020.51 1020.02 1020.12 1020.01 1018.92 1017.84 1017.10 1016.89 1016.12 1015.78 1015.33 1015.10
1023.41 1023.33 1023.19 1023.02 1022.66 1022.18 1021.80 1021.48 1021.78 1021.72 1021.16 1021.31 1021.18 1020.89 1020.79 1020.64 1020.06 1020.02 1019.64 1019.57 1019.73 1019.75 1019.92 1020.25 1020.78 1020.65 1020.72 1020.74 1021.59 1021.73 1021.79 1021.77 1021.51 1020.54 1020.52 1020.97 1020.30 1019.58 1018.03 1017.41 1017.32 1016.85 1016.39 1015.99 1015.78
1023.33 1023.32 1023.09 1022.86 1022.60 1022.04 1021.89 1022.49 1023.14 1023.47 1022.42 1021.53 1021.18 1021.05 1020.95 1020.89 1020.62 1020.15 1019.90 1019.94 1019.85 1019.97 1019.85 1020.43 1020.36 1019.76 1020.13 1019.85 1020.63 1021.41 1021.96 1022.01 1021.88 1021.44 1020.65 1021.08 1021.14 1021.02 1019.88 1018.87 1018.50 1018.28 1017.65 1017.47 1016.87
1023.22 1023.19 1023.12 1022.76 1022.46 1022.54 1022.80 1023.23 1023.18 1023.24 1022.92 1021.85 1021.34 1021.12 1021.18 1021.11 1020.90 1020.50 1020.47 1020.45 1020.25 1020.02 1020.09 1020.34 1019.94 1019.25 1019.69 1019.60 1020.27 1020.99 1021.12 1021.31 1021.47 1021.36 1021.07 1020.73 1020.95 1021.47 1021.69 1021.16 1020.59 1019.89 1019.58 1018.95 1018.21
1023.14 1023.13 1022.99 1022.67 1022.88 1022.74 1023.34 1023.39 1023.15 1023.15 1023.34 1022.62 1021.60 1021.20 1021.11 1021.01 1020.98 1020.51 1020.45 1020.76 1020.46 1020.35 1020.17 1020.04 1019.68 1019.56 1019.30 1019.07 1019.56 1020.18 1020.07 1020.19 1020.63 1020.86 1021.04 1020.72 1022.76 1023.01 1022.96 1022.64 1022.03 1021.20 1020.47 1019.78 1019.74
1023.08 1023.12 1022.98 1022.79 1023.11 1023.18 1023.59 1023.35 1023.32 1023.43 1023.90 1023.08 1021.76 1021.08 1020.83 1021.29 1021.21 1020.71 1020.56 1020.55 1021.02 1020.75 1020.73 1020.25 1019.75 1019.50 1019.41 1019.19 1019.26 1019.03 1018.77 1019.06 1019.31 1020.53 1020.67 1020.94 1021.99 1023.37 1022.97 1022.52 1022.13 1021.72 1021.47 1020.84 1020.19
1023.09 1023.19 1023.03 1022.93 1023.23 1023.64 1023.39 1023.44 1023.62 1024.14 1023.95 1023.24 1022.31 1021.75 1021.46 1021.35 1021.32 1020.99 1020.89 1020.96 1021.20 1021.22 1021.05 1020.35 1019.65 1019.54 1019.42 1018.71 1018.47 1018.18 1018.39 1018.69 1019.14 1019.84 1021.43 1021.97 1022.02 1022.77 1022.47 1023.08 1022.59 1022.22 1021.91 1021.51 1020.89
1023.09 1023.19 1023.06 1023.10 1023.69 1023.60 1023.61 1024.03 1024.83 1024.69 1024.91 1024.33 1023.24 1022.74 1022.42 1022.34 1022.07 1021.85 1021.96 1022.30 1022.59 1022.48 1022.67 1021.36 1020.30 1019.83 1019.47 1019.09 1018.15 1018.77 1018.55 1019.74 1020.42 1021.01 1022.69 1022.28 1022.60 1023.52 1023.27 1023.08 1022.91 1022.59 1022.16 1021.91 1021.68
1023.02 1023.29 1023.45 1023.61 1023.58 1023.68 1024.24 1024.85 1025.73 1025.27 1024.83 1024.16 1023.88 1023.48 1023.44 1023.32 1022.89 1022.72 1022.79 1023.45 1023.33 1023.41 1023.64 1023.14 1021.42 1020.58 1020.16 1020.24 1020.06 1019.49 1019.49 1020.44 1021.47 1022.38 1023.04 1022.56 1023.27 1023.37 1023.05 1023.04 1022.95 1022.87 1022.92 1022.83 1022.73
1023.06 1023.72 1023.82 1023.98 1023.51 1023.91 1025.02 1026.17 1025.54 1025.40 1024.73 1024.42 1024.44 1024.34 1024.42 1024.10 1023.97 1023.62 1023.69 1024.10 1023.93 1023.86 1024.01 1023.76 1022.31 1020.95 1020.45 1020.25 1020.55 1019.73 1019.90 1020.36 1021.18 1022.51 1023.00 1023.52 1023.62 1023.18 1022.85 1023.05 1023.22 1023.36 1023.46 1023.67 1023.72
1023.25 1023.91 1024.22 1024.04 1023.93 1024.24 1025.86 1026.52 1026.11 1025.54 1024.83 1024.44 1024.79 1024.98 1025.40 1025.11 1024.94 1024.71 1024.46 1024.43 1024.15 1023.93 1023.92 1024.00 1023.49 1021.91 1021.06 1020.43 1020.30 1020.37 1020.21 1020.61 1021.21 1022.63 1023.42 1023.64 1023.42 1023.26 1023.47 1023.65 1023.84 1024.07 1024.29 1024.35 1024.49
1023.18 1024.11 1024.38 1024.16 1024.13 1025.16 1026.74 1026.97 1026.28 1025.85 1025.31 1024.91 1025.02 1025.10 1025.37 1025.59 1025.55 1025.48 1024.91 1024.77 1024.24 1024.20 1023.96 1023.79 1024.05 1022.91 1022.02 1022.21 1021.86 1021.16 1020.81 1020.75 1021.33 1021.94 1022.28 1023.06 1023.30 1022.56 1023.22 1023.82 1024.23 1024.44 1024.60 1024.69 1024.59
1023.07 1024.39 1024.56 1024.40 1025.49 1026.49 1027.29 1026.71 1026.24 1026.02 1025.66 1025.19 1025.05 1025.02 1025.28 1025.58 1025.83 1025.89 1025.32 1024.82 1024.38 1024.45 1024.56 1024.37 1024.42 1024.27 1023.29 1022.58 1022.27 1022.05 1021.84 1021.45 1021.60 1022.16 1022.15 1022.32 1023.10 1022.60 1023.09 1023.62 1024.25 1024.77 1024.81 1024.95 1025.14
1023.12 1024.41 1024.67 1024.77 1025.67 1026.93 1027.42 1027.30 1026.71 1026.15 1025.69 1025.49 1025.40 1025.14 1025.18 1025.62 1026.01 1025.59 1025.44 1025.19 1024.95 1024.83 1024.98 1025.09 1025.38 1025.16 1024.38 1023.84 1022.99 1022.66 1022.23 1021.86 1021.70 1021.92 1022.20 1022.82 1023.30 1023.06 1023.10 1023.62 1024.13 1024.64 1024.99 1025.13 1025.20
1022.60 1024.21 1025.08 1025.15 1025.55 1025.85 1027.13 1027.25 1026.67 1025.93 1025.72 1025.24 1025.16 1025.35 1025.69 1026.08 1026.25 1026.05 1025.74 1025.46 1025.45 1025.39 1025.49 1025.73 1026.25 1026.39 1025.80 1024.97 1024.35 1023.58 1022.93 1022.41 1022.19 1022.41 1022.15 1022.02 1022.69 1023.35 1023.64 1023.96 1024.24 1024.64 1024.94 1025.25 1025.33
1021.63 1022.42 1022.75 1024.78 1025.20 1025.31 1025.74 1025.71 1026.12 1025.68 1025.62 1025.36 1025.27 1024.79 1025.33 1026.49 1026.70 1026.41 1026.18 1025.90 1025.94 1025.90 1026.21 1026.87 1027.68 1027.83 1027.11 1026.33 1025.63 1024.45 1023.78 1023.28 1022.74 1022.13 1022.09 1021.75 1021.89 1022.15 1022.90 1023.66 1023.95 1024.39 1024.83 1025.20 1025.49
1020.70 1021.70 1022.53 1022.94 1023.28 1024.49 1024.62 1024.95 1024.77 1024.90 1024.86 1024.98 1024.90 1024.54 1024.86 1025.31 1025.35 1025.61 1025.91 1026.21 1026.00 1026.65 1027.12 1027.74 1029.06 1029.76 1029.34 1028.00 1026.91 1025.49 1024.10 1023.83 1023.01 1022.43 1021.79 1021.44 1021.55 1021.18 1022.31 1023.24 1024.04 1024.10 1024.53 1025.02 1025.44
1019.73 1019.80 1020.30 1022.07 1022.86 1023.55 1023.18 1022.77 1023.06 1023.24 1023.67 1023.35 1023.78 1024.14 1024.85 1024.77 1024.98 1025.16 1025.73 1026.05 1026.24 1026.89 1028.19 1028.99 1030.07 1031.85 1031.37 1029.72 1028.05 1025.87 1023.51 1022.88 1022.18 1021.72 1021.43 1021.33 1020.73 1021.23 1022.49 1022.69 1023.29 1023.95 1024.38 1024.85 1025.22
Wind_Speed
7 8 9 10 11 12 12 13 13 14 14 15 15 15 15 16 17 3 5 5 6 11 14 8 9 8 6 1 2 3 3 4 5 5 7 7 9 7 10 6 6 6 6 3 14
7 8 9 10 11 12 13 13 13 14 15 15 15 15 14 15 3 7 3 7 10 11 7 8 10 9 6 5 3 4 3 5 5 8 10 10 7 8 9 13 5 12 11 8 6
6 8 9 10 11 12 13 14 13 14 15 15 16 15 12 9 2 2 4 7 8 7 4 4 6 6 5 4 5 3 4 5 14 10 8 10 11 7 11 5 10 9 9 9 6
6 7 10 11 12 13 13 14 14 15 15 16 16 12 10 2 4 1 4 7 9 8 5 6 7 6 4 5 6 6 6 9 8 11 7 8 10 15 6 5 14 11 11 8 13
5 7 8 11 13 13 14 14 15 15 14 15 12 9 4 1 3 4 4 7 6 8 5 4 4 3 4 4 7 2 6 9 9 11 10 6 7 8 15 13 12 13 10 6 8
6 8 10 11 12 14 15 15 15 15 15 12 9 7 1 3 2 3 5 2 6 6 5 3 1 3 3 1 2 5 13 16 14 12 8 8 6 7 7 10 13 8 12 6 11
7 9 11 12 13 14 15 16 17 16 12 8 6 3 2 2 1 4 5 2 2 2 4 3 1 0 2 5 5 8 9 14 12 5 4 4 6 5 15 11 7 7 10 6 8
7 9 11 13 14 15 16 16 16 12 7 6 4 2 1 2 1 3 5 3 2 2 1 4 3 5 3 1 5 4 4 7 5 4 4 5 7 13 21 6 8 6 5 3 8
6 8 11 13 15 16 16 16 11 6 4 2 1 1 2 1 2 3 2 3 4 3 4 3 2 3 1 3 2 4 2 7 6 6 3 3 8 18 14 13 11 6 4 8 9
5 8 10 13 15 16 17 13 4 5 3 4 4 1 3 4 3 5 3 1 2 4 2 1 2 2 2 6 8 7 3 5 5 10 14 11 12 14 14 16 11 4 4 9 10
5 7 9 12 14 16 8 3 5 3 4 2 2 2 2 7 3 2 4 3 2 1 1 3 3 4 7 9 2 3 4 7 5 2 10 10 16 18 17 21 19 10 9 9 11
5 6 9 11 14 15 3 5 2 2 3 1 3 3 2 2 3 3 8 2 3 3 5 5 1 9 2 13 8 5 5 3 5 6 8 15 18 14 18 19 15 13 13 11 9
3 5 9 11 13 4 4 3 1 1 1 1 1 2 1 3 2 5 4 2 2 5 5 1 4 10 1 9 15 8 2 2 2 3 3 3 11 18 11 15 13 14 12 10 13
3 4 8 13 3 1 3 1 1 2 6 4 2 2 2 1 1 2 0 1 2 3 5 4 4 7 7 5 4 4 6 6 6 2 3 2 4 12 11 8 10 12 13 12 8
3 3 6 7 2 3 0 2 2 3 5 3 2 1 3 1 3 2 0 1 2 3 3 5 7 7 4 4 2 5 10 5 5 6 3 8 6 6 2 8 10 11 10 10 12
4 2 5 2 3 1 3 3 3 9 4 3 3 5 3 3 1 4 2 3 2 3 2 3 0 2 3 11 7 8 5 7 0 3 6 7 4 9 9 9 10 13 12 12 13
5 1 1 1 0 4 3 3 8 6 5 5 1 3 2 4 4 4 4 6 3 5 5 7 1 4 3 6 5 9 4 3 6 7 1 3 9 1 4 6 10 10 10 11 11
7 3 4 2 3 4 3 7 5 4 6 2 1 1 2 3 1 4 3 3 5 4 4 2 7 5 5 2 4 5 3 4 4 2 0 6 3 2 4 6 6 9 8 9 10
9 1 2 3 3 3 6 5 9 7 4 6 2 4 5 1 0 3 3 3 2 4 5 3 6 4 0 1 1 7 5 3 4 3 5 3 2 3 4 6 7 8 8 9 8
4 2 1 4 4 4 7 6 2 2 2 2 4 3 4 3 2 2 3 3 1 1 1 3 3 3 4 4 2 2 4 4 4 3 2 2 5 5 5 5 5 6 6 6 6
3 3 2 4 3 6 5 7 2 3 1 3 4 3 3 4 4 2 3 1 1 2 4 1 4 7 5 5 2 7 4 3 3 3 4 4 4 6 8 7 7 5 5 6 7
3 1 3 3 5 1 3 5 1 2 1 1 2 3 5 5 3 2 3 0 2 0 0 1 3 1 2 3 3 1 4 2 4 4 1 3 4 4 8 9 8 6 6 5 5
5 2 1 3 4 2 3 3 1 4 4 4 3 2 1 5 1 5 3 1 2 1 3 1 2 3 8 6 3 1 2 3 0 2 2 5 4 3 7 8 7 8 6 6 6
5 4 1 1 1 6 5 4 3 2 2 3 4 3 3 0 4 5 4 3 2 1 1 1 2 3 6 3 1 3 3 4 2 3 2 5 7 6 7 8 7 7 7 6 6
2 4 5 6 5 4 5 6 5 4 2 4 1 6 7 3 1 3 2 3 2 2 1 4 4 1 3 1 1 3 4 6 4 5 5 3 9 13 12 10 9 8 7 7 6
7 5 1 4 4 9 8 7 11 4 9 5 6 7 7 6 7 8 6 4 5 3 4 0 2 3 5 5 3 5 8 7 7 5 6 5 6 8 8 8 7 10 9 8 7
3 1 3 9 7 6 7 7 11 9 7 6 9 7 8 6 5 2 4 3 5 7 5 4 6 4 6 4 5 8 10 11 6 6 6 7 6 9 9 13 11 9 9 8 7
Wind_Direction
7 360 2 3 0 357 354 354 351 345 342 339 337 339 342 336 328 101 39 345 349 334 329 315 353 333 328 318 5 58 37 247 298 23 326 340 340 327 310 310 314 353 4 179 124
357 356 356 356 356 354 349 348 346 340 337 334 331 332 337 337 317 65 344 351 351 345 323 349 343 345 356 354 347 117 187 241 326 329 326 321 327 337 351 324 44 29 3 54 115
355 352 350 349 348 350 345 341 340 336 333 331 326 325 329 334 321 68 351 2 348 318 293 306 342 7 3 339 350 303 233 303 299 311 341 313 315 333 347 326 32 352 336 356 351
354 351 345 345 341 344 341 338 336 332 331 329 328 328 325 308 70 101 340 348 324 290 323 28 8 351 360 1 353 346 327 320 317 319 326 308 322 322 286 268 307 307 317 337 181
349 344 338 341 337 337 337 336 330 328 328 327 330 338 352 339 69 181 360 333 335 358 72 47 4 359 25 340 328 276 303 317 320 322 317 295 310 296 295 301 318 304 334 310 120
338 333 337 339 334 334 333 330 325 322 324 319 327 336 316 79 286 24 324 43 25 5 1 74 312 132 166 81 346 297 307 303 293 285 292 302 307 344 305 311 328 340 21 28 147
329 333 335 333 332 331 329 326 320 320 317 306 316 309 354 143 12 342 5 167 151 61 6 49 85 300 212 358 345 287 296 292 274 236 245 8 312 275 304 280 287 2 39 19 60
324 330 331 330 329 328 325 320 320 319 308 291 300 303 340 193 71 34 343 335 111 152 111 137 212 301 42 330 314 324 323 330 304 153 236 99 294 3 338 330 292 65 65 176 58
316 328 328 330 328 327 324 321 313 307 301 266 339 109 112 147 24 309 325 295 300 228 180 201 165 239 217 10 347 45 326 342 347 45 26 52 338 347 334 53 16 80 29 38 56
309 324 327 328 328 328 325 314 286 325 263 225 264 12 15 337 310 307 286 256 287 312 163 68 210 308 279 33 13 355 14 23 22 356 39 38 16 358 13 40 14 99 76 55 55
299 321 325 325 328 328 345 6 18 6 24 108 339 302 50 310 271 213 303 309 212 201 356 174 25 320 354 92 169 359 74 55 9 53 77 57 51 18 8 24 10 16 63 56 54
287 318 319 323 328 327 356 71 103 217 354 311 291 280 129 331 307 351 1 38 356 333 22 17 332 318 32 113 105 81 86 360 60 27 86 63 51 35 19 7 1 27 29 26 54
273 311 317 323 327 13 78 87 324 345 116 348 355 320 338 12 350 313 32 328 347 20 6 158 275 327 8 102 75 51 89 173 164 287 281 298 35 24 12 20 32 27 25 17 35
253 309 319 324 344 314 50 360 337 64 77 337 29 314 354 173 28 260 79 98 284 48 339 266 344 358 322 99 136 134 240 172 169 223 23 93 73 25 359 352 30 10 21 23 28
235 291 321 359 281 66 301 327 324 62 39 305 329 296 272 20 277 293 257 46 44 316 74 271 342 360 335 343 326 199 192 187 140 81 30 2 82 346 127 34 27 42 32 35 42
204 262 334 5 57 344 330 349 60 42 265 348 307 337 331 21 36 303 34 8 67 356 300 273 136 123 239 294 241 280 204 201 354 110 44 334 93 7 20 19 21 26 30 27 32
176 110 23 46 181 327 20 36 41 117 350 293 292 5 335 350 353 18 68 17 71 59 351 327 353 348 10 341 335 4 51 20 357 31 116 309 62 326 26 56 54 48 38 29 35
153 130 40 64 9 21 44 49 87 237 211 216 223 258 96 358 328 9 73 31 22 46 77 84 343 9 350 89 257 308 84 141 155 107 181 13 69 285 102 77 56 57 45 41 37
145 58 70 339 18 65 66 58 202 196 174 152 100 74 329 23 33 20 97 157 73 29 139 89 288 327 72 230 74 329 47 171 105 45 79 136 38 21 107 74 53 42 42 35 29
128 122 350 325 7 75 76 248 193 233 129 150 146 138 172 266 47 59 149 274 153 94 71 167 344 287 301 2 318 301 284 63 356 82 50 206 175 197 168 132 80 56 52 50 27
91 82 277 343 54 45 155 221 229 249 348 150 189 130 189 189 160 247 198 278 61 309 323 174 125 290 42 14 337 347 346 34 122 142 149 158 240 197 163 149 129 110 80 65 56
126 119 298 16 64 352 162 188 297 176 250 167 84 136 172 167 155 227 198 211 121 9 143 339 110 283 228 199 178 137 292 305 117 264 305 137 247 143 135 139 131 124 116 97 75
121 117 345 63 155 228 316 321 241 160 205 173 186 169 187 178 124 162 196 265 49 23 187 304 301 34 345 357 346 290 249 285 192 76 233 125 246 168 126 128 138 131 118 106 97
123 127 12 29 232 137 138 243 242 228 255 171 166 120 89 219 5 184 166 185 176 46 147 341 156 181 189 198 174 297 256 250 161 106 227 205 161 200 170 149 143 131 125 119 113
109 198 177 183 241 174 155 152 149 185 246 191 299 192 163 131 73 239 275 132 198 196 213 119 171 344 283 264 300 240 262 287 252 234 172 231 177 193 180 171 165 153 141 128 115
140 153 255 153 131 145 182 214 178 159 155 230 204 203 182 162 186 195 150 185 196 180 178 79 236 89 303 334 354 271 264 257 259 269 267 211 237 161 160 136 151 156 149 145 142
188 124 133 159 145 133 208 193 194 141 226 196 190 134 197 204 125 69 121 83 160 154 161 133 124 84 270 337 317 332 227 201 189 207 181 206 206 147 154 161 165 158 151 154 153